sat.trackr.live / text

‹ back to catalog

COSMOS 2400

NORAD 27868 · 2003-037A

PAYLOAD ACTIVE UNKNOWN

§ Identity

Operator
Country
CIS
Launch date
2003-08-19
Launch site
PLMSC
Launch vehicle
Mass (kg)
RCS (m²)
0.90

External: N2YO · Heavens-Above · Gunter

§ Orbital elements

Epoch: 2026-09-19T22:55:29.568576Z

Period
115.64 min
Inclination
82.4659°
Eccentricity
0.0020874
Mean motion
12.45191635 rev/d
Perigee alt
1,468.3 km
Apogee alt
1,501.1 km
Semi-major
7,862.8 km
B*
5.0172e-4
RAAN
270.4221°
Arg perigee
205.2561°
Mean anomaly
154.7501°
Rev number
4,933

§ Raw data

COSMOS 24001 27868U 03037A   26262.95520334  .00000082  00000+0  50172-3 0  99902 27868  82.4659 270.4221 0020874 205.2561 154.7501 12.45191635 49336

JSON: /api/v1/satellites/27868 · /tle

For live sub-satellite position, see the globe view (requires WebGL).

§ Visibility from observer

Set your observer location to see the next 7 days of passes ≥ 10°. The values pass through the URL so the page stays shareable.

No JS? Fill the form by hand. The geolocation button needs JavaScript.